Location: B?jaj?g
(11.7167°N, 92.6667°E)
Time: 15:30:40
(UTC+00:00)

Cosmos 2100 Rocket - Pass Details

Date: 18 September 2020
Orbit: 956 x 1000 km, 82.9° (Epoch: 27 October)

Event Time Altitude Azimuth Distance (km) Brightness Sun altitude
Rises 22:54:32 0° 355° (N) 3,712 7.0 -11.6°
Reaches altitude 10° 22:57:03 10° 355° (N) 2,761 6.4 -11.0°
Maximum altitude 23:03:25 84° 267° (W) 1,001 4.0 -9.4°
Drops below altitude 10° 23:09:43 10° 179° (S) 2,741 6.3 -7.9°
Sets 23:12:13 0° 178° (S) 3,683 7.0 -7.3°
